Location: M cDonald Observatory Visitors Center
(30.6776°N, 104.0264°W)
Time: 10:04:52
(UTC-06:00)

N. Korean satellite - Visible Passes

Search period start: 17 February 2020 00:00
Search period end: 27 February 2020 00:00
Orbit: 456 x 506 km, 97.2° (Epoch: 17 February)

Date Brightness Start Highest point End Pass type
(mag) Time Alt. Az. Time Alt. Az. Time Alt. Az.
17 Feb 10.1 05:41:04 10° ENE 05:42:49 13° E 05:44:35 10° ESE visible
18 Feb 6.6 06:47:05 10° N 06:50:46 64° WNW 06:54:23 10° SSW visible
19 Feb 7.6 06:21:38 10° NNE 06:25:15 51° E 06:28:50 10° S visible
20 Feb 9.3 05:56:45 10° NE 05:59:40 22° E 06:02:33 10° SSE visible
21 Feb 7.2 07:04:03 10° N 07:07:27 35° WNW 07:10:49 10° SW visible
22 Feb 6.6 06:38:17 10° N 06:42:00 87° W 06:45:39 10° SSW visible
23 Feb 8.2 06:13:00 10° NNE 06:16:28 37° E 06:19:52 10° SSE visible
24 Feb 9.7 05:48:25 10° NE 05:50:50 17° E 05:53:14 10° SE visible
25 Feb 6.9 06:55:09 10° N 06:58:41 47° WNW 07:02:11 10° SSW visible
26 Feb 6.9 06:29:32 10° NNE 06:33:12 69° E 06:36:49 10° S visible
